Home   Weather   Perth   Past weeks
Flag for Australia

Past Weather in Perth, Western Australia, Australia — Yesterday and Last 2 Weeks

Now
48 °F

Clear.


Feels Like: 48 °F
Forecast: 67 / 53 °F
Wind: No wind

Location: Belmont Perth Airport

Current Time: May 22, 2019 at 11:37:39 pm

Latest Report: May 22, 2019 at 11:00 pm


Visibility: 10 mi

Pressure: 30.18 "Hg

Humidity: 94%

Dew Point: 46 °F

Location of PerthLocation

Past Weather in Perth — Graph

°F

Perth Temperature Yesterday

Maximum temperature yesterday: 70 °F (at 1:30 pm)
Minimum temperature yesterday: 52 °F (at 1:30 am)
Average temperature yesterday: 59 °F

High & Low Weather Summary for the Past Weeks

 TemperatureHumidityPressure
High84 °F (May 15, 1:00 pm)100% (May 7, 11:00 pm)30.54 "Hg (May 7, 11:00 pm)
Low36 °F (May 17, 7:00 am)12% (May 15, 1:00 pm)29.89 "Hg (May 20, 4:00 am)
Average57 °F64%30.23 "Hg
* Reported May 7 10:00 pm — May 22 10:00 pm, Perth. Weather by CustomWeather, © 2019

Note: Actual official high and low records may vary slightly from our data, if they occured in-between our weather recording intervals... More about our weather records

Advertising

Perth Weather History for the Previous 24 Hours

Scroll right to see more
 ConditionsComfort  
Time TempWeatherWind HumidityBarometerVisibility
10:00 pm
Wed, May 22
52 °FClear.7 mph88%30.18 "Hg10 mi
9:30 pm57 °FClear.8 mph77%30.18 "Hg10 mi
9:00 pm57 °FClear.8 mph77%30.18 "Hg10 mi
8:30 pm57 °FClear.7 mph77%30.18 "Hg10 mi
8:00 pm61 °FClear.9 mph68%30.15 "Hg10 mi
7:30 pm63 °FClear.8 mph64%30.15 "Hg10 mi
7:00 pm63 °FClear.8 mph59%30.15 "Hg10 mi
6:30 pm63 °FClear.8 mph59%30.12 "Hg10 mi
6:00 pm64 °FClear.9 mph56%30.12 "Hg10 mi
5:30 pm66 °FClear.9 mph49%30.12 "Hg10 mi
5:00 pm68 °FSunny.9 mph46%30.12 "Hg10 mi
4:30 pm68 °FSunny.10 mph46%30.12 "Hg10 mi
4:00 pm70 °FPassing clouds.6 mph40%30.12 "HgN/A
3:30 pm72 °FPassing clouds.6 mph38%30.09 "HgN/A
3:00 pm72 °FPassing clouds.7 mph36%30.09 "HgN/A
2:30 pm72 °FPassing clouds.6 mph36%30.12 "HgN/A
2:00 pm72 °FSunny.9 mph36%30.12 "Hg10 mi
1:30 pm70 °FPassing clouds.6 mph38%30.12 "HgN/A
1:00 pm70 °FPassing clouds.6 mph38%30.12 "HgN/A
12:30 pm70 °FPassing clouds.6 mph38%30.15 "HgN/A
12:00 pm70 °FPartly sunny.6 mph38%30.15 "HgN/A
11:30 am68 °FPassing clouds.6 mph40%30.18 "HgN/A
11:00 am66 °FSunny.8 mph46%30.18 "Hg10 mi
10:30 am66 °FSunny.8 mph49%30.21 "Hg10 mi
10:00 am63 °FSunny.8 mph56%30.21 "Hg10 mi
9:30 am61 °FSunny.8 mph59%30.21 "Hg10 mi
9:00 am57 °FSunny.7 mph67%30.24 "Hg10 mi
8:30 am54 °FSunny.5 mph77%30.21 "Hg10 mi
8:00 am50 °FSunny.3 mph88%30.21 "Hg10 mi
7:30 am45 °FSunny.5 mph93%30.21 "Hg10 mi
7:00 am46 °FClear.1 mph93%30.21 "Hg10 mi
6:30 am48 °FClear.7 mph94%30.21 "Hg10 mi
6:00 am46 °FClear.7 mph100%30.21 "Hg10 mi
5:30 am48 °FClear.8 mph94%30.21 "Hg10 mi
5:00 am50 °FClear.9 mph94%30.18 "Hg10 mi
4:30 am45 °FClear.1 mph93%30.18 "Hg10 mi
4:00 am45 °FClear.2 mph93%30.18 "Hg10 mi
3:30 am46 °FClear.5 mph93%30.21 "Hg10 mi
3:00 am46 °FClear.3 mph93%30.21 "Hg10 mi
2:30 am46 °FClear.No wind100%30.21 "Hg10 mi
2:00 am48 °FClear.No wind94%30.21 "Hg10 mi
1:30 am50 °FClear.6 mph94%30.21 "Hg10 mi
1:00 am50 °FClear.5 mph94%30.21 "Hg10 mi
12:30 am54 °FClear.1 mph88%30.21 "Hg10 mi
12:00 am55 °FPassing clouds.6 mph82%30.21 "HgN/A
11:30 pm
Tue, May 21
54 °FClear.5 mph88%30.21 "Hg10 mi
11:00 pm54 °FPassing clouds.6 mph88%30.21 "HgN/A
Weather by CustomWeather, © 2019

See weather overview